Weather reports worldwide

Advertisment
Nürburg/Barweiler, Germany (10506): temperature & dewpoint: 10.01.2018 08:00:00 - 16.01.2018 08:00:00 (CET)Nürburg/Barweiler, Germany (10506): temperature 5cm & temperature -5cm: 10.01.2018 08:00:00 - 16.01.2018 08:00:00 (CET)Nürburg/Barweiler, Germany (10506): temperature -20cm & temperature -100cm: 10.01.2018 08:00:00 - 16.01.2018 08:00:00 (CET)Nürburg/Barweiler, Germany (10506): wind speed & gusts: 10.01.2018 08:00:00 - 16.01.2018 08:00:00 (CET)Nürburg/Barweiler, Germany (10506): wind direction: 10.01.2018 08:00:00 - 16.01.2018 08:00:00 (CET)Nürburg/Barweiler, Germany (10506): reduced air pressure: 10.01.2018 08:00:00 - 16.01.2018 08:00:00 (CET)Nürburg/Barweiler, Germany (10506): visibility: 10.01.2018 08:00:00 - 16.01.2018 08:00:00 (CET)Nürburg/Barweiler, Germany (10506): sunshine duration: 10.01.2018 08:00:00 - 16.01.2018 08:00:00 (CET)Nürburg/Barweiler, Germany (10506): precipitation: 10.01.2018 08:00:00 - 16.01.2018 08:00:00 (CET)
Date & Time tt [°C] td [°C] tt 5cm [°C] tt -5cm [°C] tt -20cm [°C] tt -100cm [°C] ff [km/h] ff [kn] fx [km/h] fx [kn] dd ppp [hPa] vv [km] sd [min] rr [mm]
16.01.2018 08:00:00 3,5 1,9 2,8 2,5 3,2 6,2 16 9 35 19 WSW 994,5 43 0 0,1
16.01.2018 07:00:00 3,4 2,3 2,8 2,5 3,1 6,2 21 11 35 19 WSW 994,7 28 0 0,9
16.01.2018 06:00:00 3,0 1,7 2,4 2,4 3,1 6,2 18 10 37 20 WSW 995,0 17 0 0,3
16.01.2018 05:00:00 3,0 1,5 2,4 2,5 3,1 6,2 22 12 46 25 WSW 995,6 10 0 0,2
16.01.2018 04:00:00 3,6 1,5 2,7 2,4 3,1 6,2 20 11 45 24 SW 996,0 43 0 0,0
16.01.2018 03:00:00 4,0 1,5 2,9 2,6 3,1 6,2 22 12 48 26 WSW 996,7 50 0 0,0
16.01.2018 02:00:00 4,4 1,7 3,5 2,7 3,0 6,2 26 14 46 25 WSW 996,8 48 0 0,0
16.01.2018 01:00:00 4,6 2,5 3,8 2,8 3,0 6,3 27 15 46 25 WSW 996,5 70 0 0,0
16.01.2018 00:00:00 4,7 2,9 3,7 2,7 3,0 6,3 25 13 44 24 WSW 996,0 50 0 0,2
15.01.2018 23:00:00 4,1 2,9 3,2 2,4 3,0 6,3 28 15 43 23 SW 995,8 16 0 0,7
15.01.2018 22:00:00 2,7 1,7 2,2 2,2 3,0 6,3 24 13 52 28 SSW 996,5 5 0 0,4
15.01.2018 21:00:00 2,5 1,0 1,9 2,2 2,9 6,3 27 15 55 30 SSW 997,4 19 0 0,4
15.01.2018 20:00:00 2,5 1,3 1,9 2,3 2,9 6,3 26 14 53 29 SSW 998,4 10 0 1,0
15.01.2018 19:00:00 2,8 1,6 2,2 2,5 2,9 6,3 24 13 56 31 SSW 999,3 11 0 0,8
15.01.2018 18:00:00 3,2 1,8 2,6 2,5 2,8 6,3 24 13 49 27 SSW 1000,6 7 0 0,7
15.01.2018 17:00:00 3,4 1,4 2,8 2,5 2,8 6,3 27 14 55 30 SSW 1002,7 30 0 0,2
15.01.2018 16:00:00 3,0 1,8 2,6 2,6 2,7 6,3 19 11 53 29 SSW 1004,6 2,9 0 0,5
15.01.2018 15:00:00 3,3 1,2 2,7 2,5 2,6 6,3 25 13 49 26 SSW 1005,5 8 0 0,0
15.01.2018 14:00:00 3,1 1,5 2,6 2,5 2,5 6,3 24 13 52 28 SSW 1007,7 11 0 0,1
15.01.2018 13:00:00 3,0 1,6 2,9 2,2 2,4 6,3 21 12 44 24 SSW 1010,3 7 0 0,0
15.01.2018 12:00:00 2,7 1,1 2,9 1,9 2,4 6,3 22 12 45 24 SSW 1011,8 7 0 0,0
15.01.2018 11:00:00 2,4 1,1 2,4 1,0 2,4 6,3 20 11 37 20 SSW 1013,0 7 0 0,0
15.01.2018 10:00:00 2,6 0,8 2,2 0,5 2,4 6,3 14 8 25 13 SSW 1014,0 9 0 0,0
15.01.2018 09:00:00 1,4 -0,1 1,0 0,5 2,5 6,3 11 6 24 13 S 1015,1 5 0 0,0
15.01.2018 08:00:00 1,2 -0,1 0,7 0,5 2,5 6,3 8 4 23 12 S 1015,8 5 0 0,0
15.01.2018 07:00:00 0,9 -0,6 0,6 0,5 2,6 6,3 10 6 19 10 S 1016,4 6 0 0,0
15.01.2018 06:00:00 0,4 -1,3 0,0 0,5 2,6 6,3 11 6 22 12 S 1016,8 6 0 0,0
15.01.2018 05:00:00 0,5 -1,6 0,2 0,5 2,6 6,3 13 7 24 13 S 1017,6 7 0 0,0
15.01.2018 04:00:00 0,6 -1,9 0,1 0,5 2,7 6,3 13 7 25 14 S 1018,4 8 0 0,0
15.01.2018 03:00:00 0,1 -2,2 -0,5 0,5 2,8 6,3 12 6 22 12 S 1019,3 8 0 0,0
15.01.2018 02:00:00 -0,5 -2,6 -1,0 0,5 2,8 6,3 8 4 16 9 S 1020,0 9 0 0,0
15.01.2018 01:00:00 -0,9 -2,7 -1,6 0,5 2,9 6,3 8 4 16 9 S 1020,8 9 0 0,0
15.01.2018 00:00:00 -0,7 -2,6 -1,3 0,6 3,0 6,3 9 5 20 11 S 1021,4 8 0 0,0
14.01.2018 23:00:00 -0,8 -2,6 -2,0 0,7 3,1 6,3 13 7 22 12 SSE 1021,5 8 0 0,0
14.01.2018 22:00:00 -0,8 -2,3 -2,1 0,8 3,1 6,3 11 6 20 11 SSE 1021,7 6 0 0,0
14.01.2018 21:00:00 -0,3 -2,2 -1,5 1,3 3,2 6,3 12 6 24 13 S 1021,8 7 0 0,0
14.01.2018 20:00:00 0,3 -1,7 0,1 1,5 3,2 6,3 11 6 22 12 SSE 1021,5 6 0 0,0
14.01.2018 19:00:00 0,4 -1,5 0,3 1,6 3,2 6,3 11 6 23 12 SE 1021,5 6 0 0,0
14.01.2018 18:00:00 0,5 -1,3 0,3 1,7 3,2 6,3 13 7 24 13 SE 1021,4 6 0 0,0
14.01.2018 17:00:00 0,5 -1,3 0,5 2,0 3,2 6,3 14 7 22 12 SE 1021,4 6 0 0,0
14.01.2018 16:00:00 0,5 -1,3 0,8 2,2 3,2 6,4 13 7 24 13 SE 1021,3 6 0 0,0
14.01.2018 15:00:00 0,5 -1,5 1,0 2,3 3,2 6,4 14 8 25 14 SE 1021,2 5 0 0,0
14.01.2018 14:00:00 0,3 -1,4 1,0 2,2 3,2 6,4 13 7 25 14 SE 1021,5 5 0 0,0
14.01.2018 13:00:00 0,1 -1,6 0,7 2,1 3,2 6,4 16 9 29 15 SE 1021,7 5 0 0,0
14.01.2018 12:00:00 0,2 -1,4 0,9 2,0 3,2 6,4 16 9 33 18 SE 1021,9 4,6 0 0,0
14.01.2018 11:00:00 0,1 -1,4 0,8 1,8 3,2 6,4 16 9 27 15 SE 1022,2 4,7 0 0,0
14.01.2018 10:00:00 -0,1 -1,6 0,3 1,4 3,3 6,4 14 8 24 13 ESE 1022,0 4,8 0 0,0
14.01.2018 09:00:00 0,0 -1,4 0,0 1,3 3,3 6,4 13 7 26 14 E 1021,5 5 0 0,0
14.01.2018 08:00:00 0,2 -1,3 0,2 1,4 3,4 6,4 13 7 23 12 ESE 1021,3 6 0 0,0
14.01.2018 07:00:00 0,5 -1,3 0,3 1,3 3,4 6,4 12 6 26 14 ESE 1021,2 7 0 0,0
14.01.2018 06:00:00 0,8 -1,3 0,6 1,3 3,5 6,4 16 8 31 17 ESE 1021,0 8 0 0,0
14.01.2018 05:00:00 0,9 -1,1 0,4 1,3 3,6 6,4 13 7 28 15 ESE 1021,0 9 0 0,0
14.01.2018 04:00:00 1,0 -1,1 0,1 1,4 3,6 6,4 18 10 27 14 ESE 1021,0 9 0 0,0
14.01.2018 03:00:00 1,1 -1,0 0,2 1,5 3,7 6,4 15 8 27 14 SE 1021,2 9 0 0,0
14.01.2018 02:00:00 1,2 -1,0 0,3 1,7 3,8 6,3 13 7 23 13 ESE 1021,3 9 0 0,0
14.01.2018 01:00:00 1,6 -1,0 0,9 2,0 3,8 6,3 13 7 26 14 ESE 1021,5 10 0 0,0
14.01.2018 00:00:00 2,1 -1,0 1,6 2,2 3,9 6,3 14 7 35 19 ESE 1021,7 12 0 0,0
13.01.2018 23:00:00 2,2 -1,1 1,8 2,2 3,9 6,3 16 8 30 16 SE 1022,0 13 0 0,0
13.01.2018 22:00:00 2,2 -1,1 1,8 2,3 4,0 6,3 17 9 31 17 ESE 1022,3 14 0 0,0
13.01.2018 21:00:00 2,3 -1,3 1,8 2,3 4,0 6,3 18 10 29 16 ESE 1022,3 16 0 0,0
13.01.2018 20:00:00 2,3 -1,4 1,8 2,4 4,1 6,3 13 7 28 15 ESE 1022,7 16 0 0,0
13.01.2018 19:00:00 2,1 -1,5 1,6 2,5 4,1 6,3 11 6 26 14 E 1023,0 15 0 0,0
13.01.2018 18:00:00 2,2 -1,1 1,7 2,7 4,1 6,3 10 6 23 13 E 1023,2 15 0 0,0
13.01.2018 17:00:00 2,3 -1,2 1,9 3,0 4,1 6,3 11 6 22 12 E 1023,3 17 0 0,0
13.01.2018 16:00:00 2,4 -1,1 2,3 3,3 4,1 6,3 11 6 23 12 E 1023,5 19 0 0,0
13.01.2018 15:00:00 2,3 -0,7 2,6 3,2 4,2 6,3 11 6 23 12 E 1024,2 17 0 0,0
13.01.2018 14:00:00 1,7 -1,1 1,7 3,0 4,2 6,3 12 6 26 14 ESE 1025,2 15 0 0,0
13.01.2018 13:00:00 1,2 -0,8 1,4 2,9 4,2 6,3 14 8 26 14 ESE 1025,9 9 0 0,0
13.01.2018 12:00:00 1,0 -0,4 1,3 3,0 4,3 6,3 15 8 26 14 ESE 1026,5 6 0 0,0
13.01.2018 11:00:00 1,1 -0,3 1,3 2,9 4,3 6,3 14 8 26 14 ESE 1026,5 6 0 0,0
13.01.2018 10:00:00 1,2 0,2 1,3 2,9 4,4 6,3 13 7 27 14 ESE 1026,0 3,2 0 0,0
13.01.2018 09:00:00 1,7 0,6 1,6 3,0 4,4 6,3 12 7 23 13 ESE 1025,8 3,9 0 0,0
13.01.2018 08:00:00 1,8 0,1 1,6 3,1 4,5 6,3 14 8 25 14 ESE 1025,7 7 0 0,0
13.01.2018 07:00:00 2,5 0,7 2,2 3,3 4,5 6,3 10 6 19 10 ESE 1025,4 7 0 0,0
13.01.2018 06:00:00 2,8 1,9 2,5 3,3 4,5 6,3 9 5 18 10 E 1025,5 4,0 0 0,0
13.01.2018 05:00:00 3,0 2,0 2,6 3,2 4,6 6,3 10 6 16 9 ESE 1025,8 4,7 0 0,0
13.01.2018 04:00:00 2,9 2,0 2,3 3,1 4,7 6,3 3 2 14 8 ESE 1026,0 4,2 0 0,0
13.01.2018 03:00:00 2,4 1,5 0,7 3,1 4,7 6,3 7 4 11 6 E 1026,6 5 0 0,0
13.01.2018 02:00:00 3,4 1,9 2,3 3,8 4,8 6,3 6 3 11 6 SE 1026,5 7 0 0,0
13.01.2018 01:00:00 3,6 2,5 3,1 3,9 4,8 6,3 4 2 10 6 ESE 1026,7 6 0 0,0
13.01.2018 00:00:00 3,2 2,7 2,8 3,9 4,9 6,3 5 3 9 5 ENE 1026,9 1,7 0 0,0
12.01.2018 23:00:00 3,3 2,9 3,1 3,9 4,9 6,3 6 3 14 7 E 1027,1 2,2 0 0,0
12.01.2018 22:00:00 3,2 2,7 3,0 3,9 5,0 6,3 9 5 16 9 ESE 1027,1 1,9 0 0,0
12.01.2018 21:00:00 2,7 2,1 2,3 4,1 5,0 6,3 6 3 8 5 E 1027,0 1,7 0 0,0
12.01.2018 20:00:00 2,8 2,3 2,7 4,2 5,1 6,3 2 1 7 4 NW 1026,9 1,4 0 0,0
12.01.2018 19:00:00 2,6 2,1 1,8 4,4 5,1 6,3 7 4 12 6 E 1026,7 1,3 0 0,0
12.01.2018 18:00:00 3,1 2,3 2,9 4,8 5,1 6,3 7 4 11 6 NE 1026,8 2,4 0 0,0
12.01.2018 17:00:00 3,7 2,7 3,2 5,3 5,0 6,3 9 5 11 6 NE 1026,6 3,6 0 0,0
12.01.2018 16:00:00 4,4 2,9 4,2 5,9 4,9 6,3 6 3 12 6 NNE 1026,1 7 3 0,0
12.01.2018 15:00:00 4,8 2,9 5,0 6,1 4,8 6,3 6 4 10 6 NE 1025,7 8 1 0,0
12.01.2018 14:00:00 4,6 2,6 5,3 6,0 4,7 6,3 6 3 12 7 NNE 1025,9 8 0 0,0
12.01.2018 13:00:00 4,1 2,6 5,0 5,3 4,7 6,3 5 3 9 5 NE 1026,3 4,5 0 0,0
12.01.2018 12:00:00 3,7 2,8 4,0 4,7 4,7 6,3 6 3 10 5 NNE 1026,5 2,8 0 0,0
12.01.2018 11:00:00 3,5 2,8 3,9 4,4 4,7 6,3 6 3 9 5 N 1026,7 2,6 0 0,0
12.01.2018 10:00:00 3,5 3,0 3,7 4,2 4,7 6,3 6 4 9 5 N 1026,1 1,2 0 0,0
12.01.2018 09:00:00 3,5 3,3 3,5 4,1 4,7 6,3 6 4 12 6 NNW 1025,6 0,6 0 0,0
12.01.2018 08:00:00 3,7 3,3 3,7 4,2 4,7 6,3 8 4 10 5 N 1025,0 0,9 0 0,0
12.01.2018 07:00:00 3,8 3,5 3,8 4,2 4,7 6,3 6 4 14 7 N 1024,3 0,1 0 0,0
12.01.2018 06:00:00 3,9 3,7 3,8 4,2 4,7 6,3 8 4 15 8 NNW 1024,4 0,1 0 0,0
12.01.2018 05:00:00 4,0 3,7 3,9 4,2 4,7 6,3 11 6 17 9 N 1024,3 0,2 0 1,2
12.01.2018 04:00:00 4,0 3,8 3,9 4,2 4,8 6,3 8 4 12 7 N 1024,1 0,5 0 0,1
12.01.2018 03:00:00 4,1 3,8 3,9 4,2 4,8 6,3 5 3 10 5 NNW 1023,7 0,7 0 0,0
12.01.2018 02:00:00 4,1 3,6 3,9 4,1 4,8 6,3 6 3 8 5 N 1023,3 2,0 0 0,0
12.01.2018 01:00:00 3,9 3,7 3,6 4,1 4,8 6,3 6 3 9 5 NNE 1023,0 1,0 0 0,0
12.01.2018 00:00:00 4,1 3,7 3,9 4,4 4,9 6,3 5 3 9 5 NNW 1022,9 0,2 0 0,0
11.01.2018 23:00:00 4,3 3,9 4,0 4,5 4,9 6,3 4 2 8 4 N 1022,3 2,2 0 0,0
11.01.2018 22:00:00 4,4 3,9 4,3 4,5 4,9 6,3 5 3 8 4 N 1021,9 2,3 0 0,0
11.01.2018 21:00:00 4,3 4,0 3,9 4,6 4,9 6,3 4 2 11 6 NE 1021,5 1,6 0 0,0
11.01.2018 20:00:00 4,4 4,0 4,0 4,6 4,9 6,3 5 3 10 5 NE 1020,8 3,0 0 0,0
11.01.2018 19:00:00 4,5 4,1 4,2 4,8 4,9 6,3 6 4 13 7 N 1020,3 3,7 0 0,0
11.01.2018 18:00:00 4,8 4,1 4,5 5,1 4,9 6,3 9 5 14 8 NNE 1019,5 7 0 0,1
11.01.2018 17:00:00 4,9 3,9 4,5 5,4 4,8 6,3 9 5 13 7 NNE 1018,8 8 0 0,0
11.01.2018 16:00:00 5,4 4,2 5,2 5,8 4,7 6,3 6 3 9 5 NE 1018,0 17 0 0,0
11.01.2018 15:00:00 5,6 4,0 5,5 6,0 4,6 6,3 5 3 8 5 NNW 1017,3 17 0 0,0
11.01.2018 14:00:00 5,6 4,5 5,8 6,0 4,5 6,3 7 4 11 6 WNW 1016,5 9 0 0,0
11.01.2018 13:00:00 5,2 4,3 5,7 5,6 4,4 6,3 5 3 8 4 W 1016,5 6 0 0,0
11.01.2018 12:00:00 5,2 4,5 5,6 4,9 4,3 6,3 3 2 11 6 WSW 1016,4 4,4 0 0,1
11.01.2018 11:00:00 4,9 4,3 5,1 4,2 4,3 6,3 4 2 8 4 ESE 1016,1 5 0 0,0
11.01.2018 10:00:00 4,4 3,9 4,3 3,9 4,3 6,3 3 2 5 3 ESE 1015,6 6 0 0,0
11.01.2018 09:00:00 4,1 3,6 3,6 3,7 4,3 6,3 0 0 6 3 N 1014,8 6 0 0,0
11.01.2018 08:00:00 4,1 3,8 3,7 3,7 4,3 6,3 4 2 9 5 E 1014,1 4,9 0 0,1
11.01.2018 07:00:00 4,1 3,5 3,8 3,6 4,3 6,3 8 4 11 6 E 1013,3 3,2 0 0,1
11.01.2018 06:00:00 4,0 3,6 3,6 3,5 4,3 6,3 7 4 10 5 E 1013,0 2,0 0 0,0
11.01.2018 05:00:00 3,7 3,1 3,3 3,4 4,4 6,3 5 3 13 7 SE 1012,8 8 0 0,0
11.01.2018 04:00:00 4,1 3,2 3,3 3,3 4,4 6,3 10 5 15 8 SE 1012,4 9 0 0,0
11.01.2018 03:00:00 3,7 3,0 2,7 3,2 4,5 6,3 8 4 11 6 SE 1012,2 7 0 0,0
11.01.2018 02:00:00 3,8 2,9 1,7 3,4 4,5 6,3 5 3 10 5 S 1011,8 10 0 0,0
11.01.2018 01:00:00 4,2 3,3 3,6 4,0 4,5 6,3 4 2 9 5 SSE 1011,8 8 0 0,0
11.01.2018 00:00:00 4,1 3,4 3,7 4,1 4,5 6,3 4 2 11 6 SW 1011,7 8 0 0,0
10.01.2018 23:00:00 4,2 3,7 3,9 4,1 4,5 6,3 7 4 11 6 SSW 1011,3 5 0 0,1
10.01.2018 22:00:00 4,3 3,6 3,9 4,2 4,5 6,3 6 4 12 7 S 1011,2 5 0 0,1
10.01.2018 21:00:00 4,4 3,6 3,9 4,2 4,5 6,3 6 4 14 8 S 1010,8 8 0 0,0
10.01.2018 20:00:00 4,6 3,5 4,0 4,3 4,5 6,3 9 5 14 8 S 1010,6 9 0 0,5
10.01.2018 19:00:00 4,9 3,1 4,2 4,3 4,5 6,3 8 5 16 9 S 1010,4 6 0 0,0
10.01.2018 18:00:00 5,1 2,6 4,4 4,3 4,5 6,3 9 5 17 9 SSE 1010,1 24 0 0,0
10.01.2018 17:00:00 5,5 2,7 4,7 4,7 4,5 6,3 9 5 23 12 S 1009,9 28 0 0,0
10.01.2018 16:00:00 5,9 2,6 5,5 4,9 4,4 6,3 9 5 22 12 S 1009,6 22 16 0,0
10.01.2018 15:00:00 6,9 2,7 5,8 5,1 4,4 6,3 11 6 25 14 SSW 1008,9 30 0 0,0
10.01.2018 14:00:00 6,5 2,4 5,4 5,2 4,3 6,3 16 8 28 15 S 1009,0 29 25 0,0
10.01.2018 13:00:00 6,6 2,2 6,7 5,4 4,2 6,3 15 8 29 16 SSW 1009,7 32 44 0,0
10.01.2018 12:00:00 5,6 2,6 5,4 4,7 4,1 6,3 14 8 26 14 S 1010,5 20 0 0,0
10.01.2018 11:00:00 5,3 2,7 5,1 4,1 4,2 6,3 11 6 21 12 SSW 1010,8 23 16 0,0
10.01.2018 10:00:00 4,4 2,2 3,6 3,4 4,2 6,3 13 7 27 14 S 1011,0 19 3 0,0
10.01.2018 09:00:00 4,4 2,3 3,3 3,5 4,2 6,3 11 6 24 13 SSW 1010,9 19 0 0,0
10.01.2018 08:00:00 4,8 2,7 3,8 3,8 4,1 6,4 14 8 29 16 SSW 1010,5 22 0 0,0

tt = temperature
td = dewpoint
tt 5cm = temperature 5cm
tt -5cm = temperature -5cm
tt -20cm = temperature -20cm
tt -100cm = temperature -100cm
ff = wind speed
fx = gusts
dd = wind direction
ppp = reduced air pressure
vv = visibility
sd = sunshine duration
rr = precipitation

Next stations